Tracking 22130 objects as of 21-Jan-2021
HD Live streaming from Space Station
objects crossing your sky now

STARLINK-1638

Track STARLINK-1638 now!
10-day predictions
STARLINK-1638 is classified as:


NORAD ID: 46134
Int'l Code: 2020-057T
Perigee: 553.2 km
Apogee: 555.4 km
Inclination: 53.1 °
Period: 95.6 minutes
Semi major axis: 6925 km
RCS: Unknown
Launch date: August 18, 2020
Source: United States (US)
Launch site: AIR FORCE EASTERN TEST RANGE (AFETR)
aabbcc
Your satellite tracking list
Your tracking list is empty




NASA's NSSDC Master Catalog

Two Line Element Set (TLE):
1 46134U 20057T   21021.43596769 -.00000291  00000-0 -63907-6 0  9992
2 46134  53.0576  45.9394 0001611 102.7642 257.3527 15.06415604 24280
Source of the keplerian elements: AFSPC